Home   Weather   Tunisia   Sousse   Past weeks
Flag for Tunisia

Past Weather in Sousse, Tunisia — Yesterday and Last 2 Weeks

Currently: 79 °F. Clear. (Weather station: Habib Bourguiba, Tunisia). See more current weather

Past Weather in Sousse — Graph

°F

Sousse Temperature Yesterday

Maximum temperature yesterday: 95 °F (at 12:00 pm)
Minimum temperature yesterday: 72 °F (at 4:30 am)
Average temperature yesterday: 83 °F

High & Low Weather Summary for the Past Weeks

 TemperatureHumidityPressure
High95 °F (Jun 19, 12:00 pm)94% (Jun 15, 1:30 am)30.24 "Hg (Jun 15, 1:30 am)
Low66 °F (Jun 9, 3:30 am)31% (Jun 13, 2:00 pm)29.95 "Hg (Jun 6, 4:00 pm)
Average77 °F66%30.04 "Hg
* Reported Jun 4 10:00 pm — Jun 19 10:30 pm, Sousse. Weather by CustomWeather, © 2021

Note: Actual official high and low records may vary slightly from our data, if they occured in-between our weather recording intervals... More about our weather records

Sousse Weather History for the Previous 24 Hours

Scroll right to see more
 ConditionsComfort  
Time TempWeatherWind HumidityBarometerVisibility
10:30 pm
Sat, Jun 19
81 °FClear.10 mph66%29.98 "Hg10 mi
10:00 pm81 °FClear.12 mph66%29.98 "Hg10 mi
9:30 pm82 °FClear.8 mph62%29.98 "Hg10 mi
9:00 pm82 °FClear.9 mph62%29.98 "Hg10 mi
8:30 pm84 °FClear.12 mph58%29.98 "Hg10 mi
8:00 pm84 °FWarm.12 mph58%29.98 "HgN/A
7:30 pm81 °FSunny.13 mph34%30.01 "Hg10 mi
7:00 pm86 °FSunny.15 mph59%29.98 "Hg10 mi
6:30 pm86 °FSunny.16 mph59%29.95 "Hg10 mi
6:00 pm88 °FSunny.16 mph59%29.95 "Hg10 mi
5:30 pm90 °FSunny.18 mph52%29.95 "Hg10 mi
5:00 pm91 °FSunny.17 mph49%29.95 "Hg10 mi
4:30 pm93 °FSunny.18 mph47%29.95 "Hg10 mi
4:00 pm93 °FSunny.17 mph47%29.95 "Hg10 mi
3:30 pm93 °FSunny.17 mph47%29.95 "Hg10 mi
3:00 pm93 °FSunny.18 mph47%29.95 "Hg10 mi
2:30 pm95 °FSunny.17 mph44%29.98 "Hg10 mi
2:00 pm93 °FSunny.20 mph49%29.98 "Hg10 mi
1:30 pm93 °FSunny.17 mph49%29.98 "Hg10 mi
1:00 pm91 °FSunny.16 mph49%30.01 "Hg10 mi
12:30 pm93 °FSunny.13 mph47%30.01 "Hg10 mi
12:00 pm95 °FPassing clouds.8 mph34%30.01 "HgN/A
11:30 am91 °FPassing clouds.12 mph41%30.01 "HgN/A
11:00 am90 °FSunny.12 mph43%30.04 "Hg10 mi
10:30 am86 °FSunny.14 mph55%30.01 "Hg10 mi
10:00 am84 °FSunny.14 mph55%30.01 "Hg10 mi
9:30 am82 °FSunny.14 mph62%30.04 "Hg10 mi
9:00 am81 °FSunny.13 mph66%30.04 "Hg10 mi
8:30 am79 °FSunny.13 mph70%30.04 "Hg10 mi
8:00 am79 °FSunny.12 mph70%30.04 "Hg10 mi
7:30 am77 °FSunny.8 mph69%30.04 "Hg10 mi
7:00 am75 °FSunny.6 mph74%30.04 "Hg10 mi
6:30 am75 °FSunny.2 mph74%30.04 "Hg10 mi
6:00 am73 °FSunny.2 mph78%30.04 "Hg10 mi
5:30 am72 °FSunny.7 mph83%30.04 "Hg10 mi
5:00 am72 °FPassing clouds.3 mph78%30.04 "HgN/A
4:30 am72 °FClear.5 mph83%30.01 "Hg10 mi
4:00 am73 °FClear.3 mph78%30.01 "Hg10 mi
3:30 am73 °FClear.5 mph83%30.01 "Hg10 mi
3:00 am73 °FClear.5 mph83%30.01 "Hg10 mi
2:30 am73 °FClear.5 mph83%30.01 "Hg10 mi
2:00 am73 °FClear.No wind83%30.04 "Hg10 mi
1:30 am73 °FClear.5 mph83%30.04 "Hg10 mi
1:00 am75 °FClear.8 mph78%30.04 "Hg10 mi
12:30 am75 °FClear.13 mph78%30.01 "Hg10 mi
12:00 am75 °FClear.10 mph78%30.01 "Hg10 mi
Weather by CustomWeather, © 2021

See weather overview